Find Starlink 6217

NORAD ID: 57058 Int'l Des: 2023-088 Owner: SPXS Country: US Constellation: starlink operational
LEOCIRCULAR

当前视图

正在加载3D地球...

About Starlink 6217

Starlink 6217 (NORAD 57058) is a starlink constellation satellite (v1.5) launched Jun 22, 2023 by SPXS of US. It operates in LEO, CIRCULAR orbit with a mass of 305.00 kg.

即将过境

Passes for default location (London). Set your location on the main map for personalized predictions.

高度历史

Loading altitude history...

两行轨道根数

1 57058U 23088L 26235.73243993 .00000078 00000-0 12350-4 0 9994
2 57058 43.0002 246.9371 0000769 266.4209 93.6554 15.27575267175887
Epoch: Aug 23, 2026 • Age: 13 hours

当前状态

高度 484.7 km
远地点 / 近地点 N/A
速度 7.63 km/s
星下点 33.76°N, 138.68°W
发射日期 Jun 22, 2023
运行时间 3.1 years
类型 internet

技术详情

分类 Payload
质量 305.00 kg
干质量 290.00 kg
总质量 305.00 kg
长度 0.20 m
直径 2.80 m
跨度 9.00 m
形状 Box + pan
制造商 SPXS
平台类型 Starlink
阶段状态 In Orbit
所有者/国家 SPXS/US

Most Searched